Regional Weather Roundup
Issued by NWS San Angelo, TX

Home | Current Version | Previous Version | Text Only | Print | Product List | Glossary On
Versions: 1 2 3 4 5 6 7 8 9 10 11 12 13 14 15 16 17 18 19 20 21 22 23 24 25 26 27 28 29 30 31 32 33 34 35 36 37 38 39 40 41 42 43 44 45 46 47 48 49 50
000
ASUS44 KSJT 311610
RWRSJT
WEST CENTRAL TEXAS REGIONAL WEATHER ROUNDUP
NATIONAL WEATHER SERVICE SAN ANGELO TX
1100 AM CDT THU JUL 31 2014

NOTE: "FAIR" INDICATES FEW OR NO CLOUDS BELOW 12,000 FEET WITH NO
SIGNIFICANT WEATHER AND/OR OBSTRUCTIONS TO VISIBILITY.

TXZ049-054-064>066-071>073-076>078-098-099-113-114-127-128-139-140-
154-155-168>170-311700
...LOCATIONS ACROSS WEST CENTRAL TEXAS...

CITY           SKY/WX    TMP DP  RH WIND       PRES   REMARKS
SAN ANGELO     MOSUNNY   79  63  57 VRB6      30.10F
ABILENE        CLOUDY    71  66  84 N13       30.12R
DYESS AFB      CLOUDY    71  64  81 N13       30.12R
JUNCTION       CLOUDY    79  67  66 N10       30.07R
SWEETWATER     CLOUDY    70  63  78 N14G21    30.18S
BROWNWOOD      CLOUDY    75  66  73 N10G17    30.07R
COLEMAN        CLOUDY    74  64  68 N14       30.09R
SONORA         MOSUNNY   79  64  61 N9        30.15R
OZONA          FAIR      79  63  57 NE9       30.14S
BRADY          PTSUNNY   75  64  69 NW9       30.08S
$$

TEXAS PANHANDLE/OKLAHOMA PANHANDLE

CITY           SKY/WX    TMP DP  RH WIND       PRES   REMARKS
AMARILLO       SUNNY     69  52  54 NE12      30.26R
BORGER         MOSUNNY   71  53  52 E13       30.24R
CANADIAN       MOSUNNY   73  56  55 NE10G17   30.19S
DALHART        SUNNY     70  52  52 E5        30.28S
DUMAS          SUNNY     68  54  60 NE8       30.26S
GUYMON         NOT AVBL
HEREFORD       SUNNY     71  53  52 NE14      30.27S
PAMPA          SUNNY     69  52  54 NE12      30.24R
PERRYTON       CLOUDY    70  58  65 N5        30.22S
$$

SOUTHERN PANHANDLE/SOUTH PLAINS/ROLLING PLAINS

CITY           SKY/WX    TMP DP  RH WIND       PRES   REMARKS
LUBBOCK        PTSUNNY   71  57  61 N12       30.22S
SNYDER         CLOUDY    70  60  70 N14       30.17S
CHILDRESS      CLOUDY    70  59  68 N13       30.17R
SEMINOLE       CLOUDY    71  57  60 NE7       30.24R
$$

PERMIAN BASIN

CITY           SKY/WX    TMP DP  RH WIND       PRES   REMARKS
MIDLAND        PTSUNNY   76  62  62 N14       30.18S
ODESSA         CLOUDY    74  60  61 N13G21    30.20S
WINK           LGT RAIN  70  64  81 N8        30.19F
$$

FAR WEST/SOUTHWEST MOUNTAINS/TRANS PECOS

CITY           SKY/WX    TMP DP  RH WIND       PRES   REMARKS
ALPINE         CLOUDY    67  61  82 N12       30.32S
DRYDEN           N/A     85  67  54 N14       30.10R
EL PASO        CLOUDY    75  62  64 S3        30.22S
FORT STOCKTON  CLOUDY    73  62  68 NE12      30.20R
GUADALUPE PASS CLOUDY    61  59  93 NE26      30.31S
MARFA          MOSUNNY   72  61  68 N22G28    30.28S
PECOS          CLOUDY    72  63  72 N12       30.20R
$$

DALLAS/FORT WORTH METROPLEX

CITY           SKY/WX    TMP DP  RH WIND       PRES   REMARKS
DFW AIRPORT    CLOUDY    80  68  66 W12       29.96S
FTW MEACHAM    CLOUDY    73  70  90 NW10      29.99R FOG
DAL-EXECUTIVE  CLOUDY    84  68  58 VRB6      29.96S
GRAND PRAIRIE  CLOUDY    79  68  69 SW7       29.98S
ADDISON        CLOUDY    79  72  78 SW6       29.97S
MESQUITE       MOSUNNY   82  72  69 S8          N/A
LANCASTER      PTSUNNY   82  69  62 SW8       29.97S
$$

NORTH CENTRAL TEXAS

CITY           SKY/WX    TMP DP  RH WIND       PRES   REMARKS
SHRMAN/DENISON CLOUDY    70  67  92 N9        30.00S FOG
GAINESVILLE    CLOUDY    67  66  97 N10       30.04R FOG
BRIDGEPORT     CLOUDY    73  65  74 N9G18     30.04R
DENTON         CLOUDY    70  69  97 N13       29.99R
WAXAHACHIE     PTSUNNY   83  66  54 SW9       29.98R
GRANBURY       CLOUDY    75  69  81 NW12      30.02S
$$

WESTERN NORTH TEXAS

CITY           SKY/WX    TMP DP  RH WIND       PRES   REMARKS
WICHITA FALLS  CLOUDY    71  66  84 NE12      30.06S
VERNON         CLOUDY    72  64  75 N15       30.12S
BRECKENRIDGE   CLOUDY    75  66  73 N13       30.07R HAZE
COMANCHE       CLOUDY    74  65  74 N14       30.07R
$$

CENTRAL AND SOUTH CENTRAL TEXAS

CITY           SKY/WX    TMP DP  RH WIND       PRES   REMARKS
AUSTIN/BERGSTM PTSUNNY   86  73  65 W6        29.99S
WACO           MOSUNNY   84  73  70 SW10      29.98R
HILLSBORO      PTSUNNY   84  67  57 W12       29.98S
TEMPLE         PTSUNNY   81  72  74 S7        29.97R
KILLEEN-GRAY   LGT RAIN  81  70  69 SW13      30.01R
FORT HOOD      CLOUDY    81  72  74 NW13      30.01R
GEORGETOWN     PTSUNNY   84  73  70 W9        30.00S
LAGO VISTA     PTSUNNY   84  70  63 W7        30.03S
SAN MARCOS     PTSUNNY   86  72  62 SW8       30.02R
NEW BRAUNFELS  CLOUDY    86  71  60 W9        29.98R
RANDOLPH AFB   CLOUDY    86  71  61 VRB2      30.00R
SAN ANTONIO    PTSUNNY   86  74  67 W6        30.00R
STINSON        MOSUNNY   86  72  62 CALM      29.97S
PLEASANTON     NOT AVBL
LA GRANGE      PTSUNNY   87  76  70 SW6       29.98R
GIDDINGS       PTSUNNY   84  72  67 SW3       30.04R
$$

EAST TEXAS

CITY           SKY/WX    TMP DP  RH WIND       PRES   REMARKS
PARIS          CLOUDY    70  63  78 SE16      30.01S
CLARKSVILLE    CLOUDY    69  67  95 E6        30.03S
TYLER          CLOUDY    72  70  93 SE13      29.99F
LONGVIEW       LGT RAIN  69  67  93 E9        30.03F FOG
PALESTINE      NOT AVBL
NACOGDOCHES    CLOUDY    72  68  88 SE6       30.04S
$$

TEXAS HILL COUNTRY AND EDWARDS PLATEAU

CITY           SKY/WX    TMP DP  RH WIND       PRES   REMARKS
LLANO          CLOUDY    81  68  65 N12       30.06R
HORSESHOE BAY  PTSUNNY   83  69  62 SW3       30.02S
KERRVILLE      CLOUDY    82  72  69 NW7       30.04S
FREDERICKSBRG  PTSUNNY   82  69  63 W7        30.04F
ROCKSPRINGS    MOSUNNY   82  70  65 CALM      30.10S
HONDO          PTSUNNY   82  73  74 CALM      30.02R
UVALDE         CLOUDY    84  74  71 CALM      30.01R
DEL RIO        CLOUDY    84  71  65 N6        30.01R
$$

SOUTHEAST TEXAS

CITY           SKY/WX    TMP DP  RH WIND       PRES   REMARKS
COLLEGE STN    PTSUNNY   83  74  74 SW8       30.00S
CALDWELL       PTSUNNY   82  75  78 SW5       30.03S
CROCKETT       PTSUNNY   82  77  83 SE5       30.04S
BRENHAM        PTSUNNY   85  72  66 SW9       30.01R
HUNTSVILLE     CLOUDY    83  74  74 S6        30.02S
CONROE         PTSUNNY   84  75  74 S5        30.02R
HOUSTON BUSH   PTSUNNY   85  73  67 SW5       30.00R
HOUSTON HOBBY  PTSUNNY   86  72  62 SW6       29.99R
PERLAND        PTSUNNY   87  73  62 SW8       30.01R
WHARTON        MOSUNNY   88  75  65 S8        29.99S
$$

THE UPPER TEXAS COAST

CITY           SKY/WX    TMP DP  RH WIND       PRES   REMARKS
ORANGE         PTSUNNY   86  73  64 E9        30.02S
PORT ARTHUR    PTSUNNY   85  74  69 SE9       30.00S
GALVESTON      MOSUNNY   89  74  60 S10G18    30.00S
ANGLETON       PTSUNNY   88  76  67 S10       29.99S
BAY CITY       MOSUNNY   91  76  62 SW9       29.99R
$$

TEXAS COASTAL BEND, RIO GRANDE PLAINS DEEP SOUTH TEXAS

CITY           SKY/WX    TMP DP  RH WIND       PRES   REMARKS
VICTORIA       MOSUNNY   92  74  55 S14G21    29.98R
BEEVILLE       FAIR      91  70  50 S16       29.96S
ROCKPORT       MOSUNNY   87  77  72 S12       29.96R
PORT ARANSAS   SUNNY     84  78  81 S13       29.96S
PORT LAVACA    MOSUNNY   89  75  63 S12G20    29.98R
CORPUS CHRISTI PTSUNNY   92  73  53 S17G23    29.94S
KINGSVILLE NAS MOSUNNY   93  74  53 S18       29.93S
COTULLA        SUNNY     87  71  58 S7        29.96S
LAREDO         SUNNY     90  72  55 VRB6      29.95S
BROWNSVILLE    MOSUNNY   91  74  57 S18       29.94S
PORT ISABEL    PTSUNNY   92  72  51 S13G22    29.94R
HEBBRONVILLE   SUNNY     89  68  48 S15G21    29.95S
MCALLEN        SUNNY     92  71  50 S18G25    29.93S
WESLACO        SUNNY     92  69  47 S17       29.93S
FALFURRIAS     SUNNY     83  65  53 S14G22    29.93S
EDINBURG       SUNNY     93  69  44 S15G23    29.93F
$$


USA.gov is the U.S. government's official web portal to all federal, state and local government web resources and services.